Regional Weather Roundup
Issued by NWS Goodland, KS

Home | Current Version | Previous Version | Graphics & Text | Print | Product List | Glossary On
Versions: 1 2 3 4 5 6 7 8 9 10 11 12 13 14 15 16 17 18 19 20 21 22 23 24 25 26 27 28 29 30 31 32 33 34 35 36 37 38 39 40 41 42 43 44 45 46 47 48 49 50
000
ASUS43 KGLD 281508
RWRGLD

GOODLAND FORECAST AREA HOURLY WEATHER ROUNDUP
NATIONAL WEATHER SERVICE GOODLAND KS
800 AM MST SAT FEB 28 2015

...OFFICIAL OBSERVATIONS...

CITY           SKY/WX    TMP DP  RH WIND       PRES   REMARKS
GOODLAND KS    LGT SNOW  11   8  88 SE9       30.12R FOG
HILL CITY KS   LGT SNOW  14  10  84 SE10      30.30R FOG     WCI   1
IMPERIAL NEB     N/A     14   6  70 S13       30.14R WCI   0
MCCOOK NEB     CLOUDY    17   8  67 S13       30.23R WCI   4
AKRON CO       MOSUNNY    9   5  84 SE9       29.98R
BURLINGTON CO  CLOUDY    10   6  84 SE14      30.05R FOG     WCI  -6
LIMON CO       CLOUDY     6   4  91 S7        29.95R FOG
$$

...UNOFFICIAL OBSERVATIONS...

CITY           SKY/WX    TMP DP  RH WIND       PRES   REMARKS
COLBY KS       LGT SNOW  14  12  92 SE12      30.19R WCI   0
GOVE KS          N/A     13  32 100 MISG        N/A
LENORA KS        N/A     13  32 100 CALM        N/A
NORTON KS      LGT SNOW  16   9  73 SE8       30.28R
SHARON SPRINGS   N/A     13  10  87 S10G17      N/A  WCI   0
KIT CARSON CO    N/A     10   7  87 MISG        N/A
YUMA CO          N/A     12   6  77 SE5         N/A
$$



USA.gov is the U.S. government's official web portal to all federal, state and local government web resources and services.